Flag for U.S.A. Weather past 2 weeks in Jackson, Wyoming, U.S.A.

Now
30 °F

Clear.


Feels Like: 25 °F
Forecast: 29 / 57 °F
Wind: 5 mph from Northeast

Location: Jackson Hole

Current Time: Apr 18, 2015 at 6:17:18 AM

Latest Report: Apr 18, 2015 at 5:35 AM


Visibility: 10 mi

Pressure: 30.09 "Hg

Humidity: 80%

Dew point: 25 °F

Location of JacksonLocation

Historic Weather in Jackson — Graph

°F

Jackson temperature yesterday

Maximum temperature yesterday: 63 °F (at 4:35 PM)
Minimum temperature yesterday: 27 °F (at 5:55 AM)
Average temperature yesterday: 44 °F

Past Weeks' High & Low Weather Summary

 TemperatureHumidityPressure
High63 °F (Apr 17, 4:35 PM)100% (Apr 6, 8:51 AM)30.33 "Hg (Apr 6, 8:51 AM)
Low12 °F (Apr 3, 5:15 AM)13% (Apr 17, 4:35 PM)28.86 "Hg (Apr 7, 5:55 PM)
Average35 °F67%29.99 "Hg
* Reported Apr 3 5:15 AM — Apr 18 5:15 AM, Jackson, Weather by CustomWeather, © 2015

Note: Actual official high and low records may vary slightly from our data, if they occured in-between our weather recording intervals... More about our weather records

Advertising

Jackson weather history for previous 24 hours

 ConditionsComfort  
Time TempWeatherWind HumidityBarometerVisibility
5:15 AM
Sat, Apr 18
28 °FClear.5 mph86%30.08 "Hg10 mi
4:55 AM27 °FClear.8 mph93%30.08 "Hg10 mi
4:35 AM28 °FClear.3 mph86%30.08 "Hg10 mi
4:15 AM30 °FClear.No wind80%30.09 "Hg10 mi
3:55 AM30 °FClear.5 mph86%30.08 "Hg10 mi
3:35 AM32 °FClear.5 mph75%30.08 "Hg10 mi
3:15 AM30 °FClear.3 mph80%30.08 "Hg10 mi
2:55 AM32 °FClear.5 mph75%30.08 "Hg10 mi
2:35 AM36 °FClear.6 mph65%30.08 "Hg10 mi
2:15 AM36 °FClear.5 mph65%30.09 "Hg10 mi
1:55 AM36 °FClear.12 mph65%30.09 "Hg10 mi
1:35 AM37 °FClear.13 mph60%30.09 "Hg10 mi
1:15 AM36 °FClear.13 mph65%30.09 "Hg10 mi
12:55 AM37 °FClear.12 mph60%30.09 "Hg10 mi
12:35 AM39 °FClear.10 mph56%30.09 "Hg10 mi
12:15 AM41 °FClear.13 mph49%30.08 "Hg10 mi
11:55 PM
Fri, Apr 17
41 °FClear.12 mph49%30.09 "Hg10 mi
11:15 PM43 °FClear.8 mph46%30.09 "Hg10 mi
10:55 PM39 °FClear.10 mph52%30.09 "Hg10 mi
10:35 PM39 °FClear.9 mph52%30.09 "Hg10 mi
10:15 PM43 °FClear.9 mph46%30.09 "Hg10 mi
9:55 PM43 °FClear.9 mph42%30.08 "Hg10 mi
9:15 PM45 °FClear.No wind31%30.06 "Hg10 mi
8:55 PM45 °FSunny.7 mph34%30.05 "Hg10 mi
8:35 PM46 °FSunny.7 mph29%30.04 "Hg10 mi
8:15 PM48 °FSunny.7 mph27%30.04 "Hg10 mi
7:55 PM52 °FSunny.5 mph24%30.04 "Hg10 mi
7:35 PM57 °FSunny.6 mph17%30.04 "Hg10 mi
7:15 PM59 °FSunny.8 mph13%30.04 "Hg10 mi
6:55 PM61 °FSunny.9 mph13%30.04 "Hg10 mi
6:35 PM61 °FSunny.10 mph15%30.04 "Hg10 mi
6:15 PM61 °FSunny.14 mph15%30.04 "Hg10 mi
5:55 PM61 °FSunny.10 mph15%30.05 "Hg10 mi
5:35 PM63 °FSunny.12 mph13%30.05 "Hg10 mi
5:15 PM63 °FSunny.14 mph13%30.05 "Hg10 mi
4:55 PM63 °FSunny.13 mph13%30.05 "Hg10 mi
4:35 PM63 °FSunny.10 mph13%30.05 "Hg10 mi
4:15 PM61 °FSunny.10 mph15%30.05 "Hg10 mi
3:55 PM61 °FSunny.12 mph15%30.06 "Hg10 mi
3:35 PM61 °FSunny.16 mph15%30.07 "Hg10 mi
3:15 PM61 °FSunny.16 mph16%30.07 "Hg10 mi
2:55 PM61 °FSunny.9 mph16%30.08 "Hg10 mi
2:35 PM59 °FSunny.8 mph18%30.09 "Hg10 mi
2:15 PM57 °FSunny.13 mph17%30.09 "Hg10 mi
1:55 PM57 °FSunny.13 mph17%30.10 "Hg10 mi
1:35 PM57 °FSunny.12 mph17%30.11 "Hg10 mi
1:15 PM57 °FSunny.14 mph17%30.12 "Hg10 mi
12:55 PM55 °FSunny.10 mph18%30.13 "Hg10 mi
12:35 PM54 °FSunny.13 mph19%30.14 "Hg10 mi
12:15 PM54 °FSunny.12 mph22%30.15 "Hg10 mi
11:55 AM52 °FSunny.12 mph26%30.16 "Hg10 mi
11:35 AM50 °FSunny.12 mph28%30.17 "Hg10 mi
11:15 AM48 °FSunny.10 mph34%30.17 "Hg10 mi
10:55 AM46 °FSunny.9 mph37%30.18 "Hg10 mi
10:35 AM45 °FSunny.10 mph39%30.19 "Hg10 mi
10:15 AM43 °FSunny.10 mph46%30.20 "Hg10 mi
9:55 AM41 °FSunny.8 mph53%30.20 "Hg10 mi
9:35 AM39 °FSunny.9 mph52%30.21 "Hg10 mi
9:15 AM37 °FSunny.14 mph56%30.21 "Hg10 mi
8:55 AM36 °FSunny.12 mph60%30.22 "Hg10 mi
8:35 AM34 °FSunny.12 mph65%30.22 "Hg10 mi
8:15 AM32 °FSunny.12 mph75%30.23 "Hg10 mi
7:55 AM30 °FSunny.13 mph80%30.23 "Hg10 mi
7:35 AM30 °FClear.7 mph80%30.23 "Hg10 mi
7:15 AM28 °FClear.10 mph86%30.23 "Hg10 mi
6:55 AM28 °FClear.9 mph86%30.23 "Hg10 mi
6:35 AM27 °FClear.10 mph93%30.22 "Hg10 mi
6:15 AM27 °FClear.6 mph93%30.22 "Hg10 mi
Weather by CustomWeather, © 2015

See weather overviewHow to use our weather pages